Location: Eisingen in Unterfranken
(49.7591°N, 9.8347°E)
Time: 14:15:29
(UTC+01:00)

N. Korean satellite - Pass Details

Date: 10 December 2022
Orbit: 407 x 441 km, 97.3° (Epoch: 05 February)

Event Time Altitude Azimuth Distance (km) Brightness Sun altitude
Rises 17:15:34 0° 187° (S) 2,474 10.6 -8.6°
Reaches altitude 10° 17:17:43 10° 197° (SSW) 1,612 9.9 -8.9°
Maximum altitude 17:20:54 33° 263° (W) 809 8.5 -9.3°
Drops below altitude 10° 17:24:07 10° 329° (NNW) 1,638 9.3 -9.8°
Sets 17:26:20 0° 340° (NNW) 2,522 10.2 -10.1°
